ICEYE-X25 (56963 NORAD) Tracking and Keplerian Element Data

This shows tracking and keplerian element data for the satellite.

Feedback or suggestion? Click here.




ElementValue
Catalog56963
NameICEYE-X25
Epoch Orbit9131
Epoch Day35.22766515
Epoch Year2025
RAAN158.9419
Inclination97.5478
Eccentricity0.0009774
Argument of Perigee284.5428
Mean Anonmoly75.4725
Mean Motion15.25248796
Decay Rate0.00028156
L11 56963U 23084AH 25035.22766515 .00028156 00000+0 11183-2 0 9992
L22 56963 97.5478 158.9419 0009774 284.5428 75.4725 15.25248796 91311



Live tracking and technical data element details for ICEYE-X25 (NORAD 56963). ICEYE-X25 can be tracked NOW for your location showing map with azimuth and elevation plus other details from your city location.







IsCatalogInMostPopularTable: catalog: 56963, numindb: 51
Update: records affected: 1



GetName: 56963 ICEYE-X25

Hit Count: updated at: Wed, 18 Jun 2025 05:03:07 GMT